sat.trackr.live / text

‹ back to catalog

YAOGAN-43 02F

NORAD 60950 · 2024-156F

PAYLOAD ACTIVE UNKNOWN

§ Identity

Operator
Country
PRC
Launch date
2024-09-03
Launch site
XICLF
Launch vehicle
Mass (kg)
RCS (m²)

External: N2YO · Heavens-Above · Gunter

§ Orbital elements

Epoch: 2026-05-24T23:23:13.572960Z

Period
94.55 min
Inclination
34.9936°
Eccentricity
0.0000689
Mean motion
15.23025157 rev/d
Perigee alt
496.2 km
Apogee alt
497.2 km
Semi-major
6,874.9 km
B*
3.2433e-4
RAAN
343.8792°
Arg perigee
254.9593°
Mean anomaly
105.1046°
Rev number
9,590

§ Raw data

YAOGAN-43 02F1 60950U 24156F   26144.97446265  .00007790  00000+0  32433-3 0  99982 60950  34.9936 343.8792 0000689 254.9593 105.1046 15.23025157 95903

JSON: /api/v1/satellites/60950 · /tle

For live sub-satellite position, see the globe view (requires WebGL).

§ Visibility from observer

Set your observer location to see the next 7 days of passes ≥ 10°. The values pass through the URL so the page stays shareable.

No JS? Fill the form by hand. The geolocation button needs JavaScript.